Regional Weather Roundup
Issued by NWS State College, PA

Home | Current Version | Previous Version | Graphics & Text | Print | Product List | Glossary Off
Versions: 1 2 3 4 5 6 7 8 9 10 11 12 13 14 15 16 17 18 19 20 21 22 23 24 25 26 27 28 29 30 31 32 33 34 35 36 37 38 39 40 41 42 43 44 45 46 47 48 49 50

000
ASUS41 KCTP 280310
RWRCTP

REGIONAL WEATHER ROUNDUP
NATIONAL WEATHER SERVICE STATE COLLEGE PA
1100 PM EDT FRI MAR 27 2015

Note: "fair" indicates few or no clouds below 12,000 feet with no
significant weather and/or obstructions to visibility.

* = STATION THAT DOES NOT REPORT PRECIPITATION /E.G. RAIN...SNOW...ETC/
    THUNDER OR FOG.

PAZ002>004-007>009-013>016-020>023-029>032-280400-
WESTERN PENNSYLVANIA

CITY           SKY/WX    TMP DP  RH WIND       PRES   REMARKS
ERIE           CLOUDY    19  11  70 W10       30.06R WCI   7
MEADVILLE      CLOUDY    17   9  70 NW8       30.00R WCI   7
FRANKLIN*      CLOUDY    18   9  68 NW7       29.99S WCI   8
NEW CASTLE     MOCLDY    19  11  71 NW13      30.05R WCI   6
BEAVER COUNTY  NOT AVBL
BUTLER*        CLOUDY    21  10  63 N6        30.00S WCI  14
PITTSBURGH INT CLOUDY    23  14  68 N17       29.99R WCI   9
PITTSBURGH     CLOUDY    23  13  65 N16G24    29.96R WCI  10
INDIANA*       MOCLDY    25  18  74 NW10G16   29.96S WCI  15
LATROBE        NOT AVBL
WASHINGTON CO* CLOUDY    25  19  80 N7        29.99S
$$

PAZ004>006-010>012-017>019-024>028-033>037-041-042-045-046-049>053-280400-
CENTRAL PENNSYLVANIA

CITY           SKY/WX    TMP DP  RH WIND       PRES   REMARKS
BRADFORD       LGT SNOW  19  13  77 NW13      29.87S WCI   6
DUBOIS         LGT SNOW  23  16  74 NW7       29.89R WCI  15
CLEARFIELD     FLURRIES  25  17  72 NW15G24   29.88R WCI  13
JOHNSTOWN      LGT SNOW  23  16  74 NW10      29.83S WCI  12
ALTOONA        MOCLDY    28  16  60 NW14      29.88S
STATE COLLEGE  CLOUDY    29  18  63 W5        29.88R
WILLIAMSPORT   CLOUDY    34  22  61 NW8       29.89R
SELINSGROVE    CLOUDY    37  27  67 N9        29.87R
FT INDIANTOWN  CLOUDY    39  23  52 NW13G22   29.83R
CAPITAL CITY   CLOUDY    39  20  46 NW13G21   29.86R
HARRISBURG     CLOUDY    39  23  52 NW21      29.84S
YORK           CLOUDY    39  23  52 NW10      29.84R
$$

PAZ038>040-043-044-047-048-054-055-060>062-067>071-280400-
EASTERN PENNSYLVANIA

CITY           SKY/WX    TMP DP  RH WIND       PRES   REMARKS
SCRANTON       CLOUDY    34  24  67 N9        29.83R
MOUNT POCONO   MOCLDY    30  22  72 N8        29.77R
ALLENTOWN      PTCLDY    35  25  66 N6        29.81S
QUAKERTOWN*    CLOUDY    39  25  56 N7        29.81F
READING        CLOUDY    37  25  61 NE3       29.81S
LANCASTER      CLOUDY    40  25  55 NW10      29.82R
COATESVILLE    MOCLDY    39  23  52 N5        29.80S
POTTSTOWN      PTCLDY    38  23  55 N5        29.82S
BLUE BELL      CLOUDY    41  27  56 CALM      29.80R
DOYLESTOWN     CLOUDY    37  24  59 N6        29.80S
WILLOW GROVE   NOT AVBL
NORTH PHILA    CLOUDY    43  22  43 N14       29.81F
PHILADELPHIA   CLOUDY    43  23  45 N12       29.81S
$$


USA.gov is the U.S. government's official web portal to all federal, state and local government web resources and services.